Simultaneous Nadir Overpasses (SNOs) Predictions

Prediction of SNOs between GOES-14 and NOAA-20 Satellite Orbit:

Table of predicted SNOs for the next 14.0 days since TLE Epoch: 1/30/2021
Index Date Time (GOES-14) GOES-14 Lat,Lon NOAA-20 Lat,Lon Distance(km) Time Diff (sec)
1 01/30/2021 08:23:52 -0.05,-104.37 0.13,-105.07 80.33 80
2 01/31/2021 08:07:47 -0.05,-104.37 -0.90,-100.54 436.50 80
3 02/01/2021 20:29:42 0.04,-104.11 -0.36,-105.82 195.90 80
4 02/02/2021 20:08:18 0.05,-104.11 0.67,-101.29 320.50 80
5 02/04/2021 08:30:06 -0.04,-104.37 0.47,-106.57 251.13 80
6 02/05/2021 08:14:02 -0.04,-104.37 -0.55,-102.04 265.75 80
7 02/06/2021 20:35:57 0.04,-104.12 -0.70,-107.33 365.91 80
8 02/07/2021 20:14:33 0.03,-104.12 0.33,-102.80 150.24 80
9 02/09/2021 08:36:21 -0.02,-104.36 0.81,-108.07 422.59 80
10 02/10/2021 08:20:16 -0.02,-104.37 -0.21,-103.54 94.38 80
11 02/12/2021 20:23:27 0.02,-104.13 0.00,-104.30 19.33 80
